Location: Hains Lake
(37.8540°N, 99.8578°W)
Time: 02:09:50
(UTC+00:00)

deb Explorer IX - Visible Passes

Search period start: 21 April 2021 00:00
Search period end: 01 May 2021 00:00
Orbit: 541 x 1099 km, 38.8° (Epoch: 20 April)

Date Brightness Start Highest point End Pass type
(mag) Time Alt. Az. Time Alt. Az. Time Alt. Az.
24 Apr ? 11:05:05 10° SW 11:08:44 32° SSE 11:12:26 10° E visible
25 Apr ? 10:42:31 16° SSW 10:45:06 32° SSE 10:48:46 10° E visible
26 Apr ? 10:20:00 25° SSW 10:21:29 33° SSE 10:25:08 10° E visible
27 Apr ? 09:57:25 32° SSE 09:57:52 33° SSE 10:01:32 10° E visible
28 Apr ? 09:34:49 32° SE 09:34:49 32° SE 09:37:56 10° E visible
28 Apr ? 11:16:34 10° W 11:20:41 90° N 11:24:47 10° E visible
29 Apr ? 09:12:10 25° ESE 09:12:10 25° ESE 09:14:21 10° E visible
29 Apr ? 10:53:24 13° W 10:57:05 89° N 11:01:09 10° E visible
30 Apr ? 08:49:30 18° E 08:49:30 18° E 08:50:47 10° E visible
30 Apr ? 10:30:44 21° W 10:33:28 89° NNW 10:37:31 10° E visible
